Location: Ladrillo (historical)
(32.8195°N, 117.2231°W)
Time: 19:46:50
(UTC+00:00)

NOAA 18 - Pass Details

Date: 22 April 2021
Orbit: 840 x 861 km, 99.0° (Epoch: 05 May)

Event Time Altitude Azimuth Distance (km) Brightness Sun altitude
Exits shadow 05:08:20 56° 356° (N) 994 5.6 -31.1°
Drops below altitude 10° 05:12:36 10° 349° (NNW) 2,463 8.2 -31.7°
Sets 05:14:58 0° 348° (NNW) 3,399 9.1 -32.1°
